FENGYUN 1C DEB

基本信息
目录编号:
41822
目录名称:
FENGYUN 1C DEB
国际标识:
1999-025EXZ
轨道中心:
EARTH
物体状态:
在轨
发射日期:
1999-05-10 UTC
轨道信息
数据来源: 国际轨道数据
星历时间: 2026-09-10T18:13:10+0800
半长轴: 7181.938km
偏心率: 0.0055255
轨道倾角: 98.715°
近地点辐角: 151.157°
升交点赤经: 323.251°
平近点角: 209.268°
近地点: 764.117km
远地点: 843.485km
周期: 100.954分钟
每日圈数: 14.263968
详细信息
发射场:
TSC
轨道高度:
LEO
数据来源:
AOE Integration Group
参考系:
TEME
时间系统:
UTC
历元类型:
SGP4
2D轨道图
3D轨道图
轨道高度分析图
轨道倾角分析图
轨道综合分析图
查看轨道综合分析图